Regional Weather Roundup
Issued by NWS San Diego, CA

Home | Current Version | Previous Version | Text Only | Print | Product List | Glossary On
Versions: 1 2 3 4 5 6 7 8 9 10 11 12 13 14 15 16 17 18 19 20 21 22 23 24 25 26 27 28 29 30 31 32 33 34 35 36 37 38 39 40 41 42 43 44 45 46 47 48 49 50
000
ASUS46 KSGX 212310
RWRSGX

SAN DIEGO HOURLY WEATHER ROUNDUP
NATIONAL WEATHER SERVICE SAN DIEGO CA
400 PM PDT THU AUG 21 2014

NOTE: "FAIR" INDICATES FEW OR NO CLOUDS BELOW 12,000 FEET WITH NO
SIGNIFICANT WEATHER AND/OR OBSTRUCTIONS TO VISIBILITY.

CAZ042-043-060-061-PZZ750-775-220000-

GREATER SAN DIEGO AREA

CITY           SKY/WX    TMP DP  RH WIND       PRES   REMARKS
LINDBERGH FLD  MOSUNNY   76  63  64 NW13      29.91S
POINT LOMA       N/A     74  62  67 NW20        N/A
NATIONAL CITY    N/A     77  66  68 NW12      29.90S
CHULA VISTA      N/A     80  68  66 W10       29.83S
IMPERIAL BEACH MOSUNNY   74  64  71 W14       29.91S
BROWN FIELD    SUNNY     75  63  66 W9        29.90F
MIRAMAR MCAS   MOSUNNY   77  62  59 NW16      29.90S
MONTGOMERY FLD SUNNY     78  63  59 NW13      29.90S

$$

NORTH SAN DIEGO COUNTY

CITY           SKY/WX    TMP DP  RH WIND       PRES   REMARKS
CAMP PENDLETON MOSUNNY   79  62  56 W12G17    29.87F
OCEANSIDE AP   SUNNY     78  63  59 W14G20    29.89S
VISTA            N/A     78  66  65 W2        29.87F
CARLSBAD       SUNNY     74  63  68 W9        29.90S
DEL MAR          N/A     78  67  68 CALM      29.93S
LA JOLLA SCRIP   N/A     72  66  81 NW3       29.88
FALLBROOK        N/A     83  62  48 S6        29.87F
ESCONDIDO        N/A     82  65  57 W12       29.90R
SAN MARCOS       N/A     79  66  62 W12       29.87F
POWAY            N/A     84  67  55 CALM      29.89R
R. PENASQUITOS   N/A     80  65  60 SW6       29.90S

$$

EAST SAN DIEGO COUNTY

CITY           SKY/WX    TMP DP  RH WIND       PRES   REMARKS
RAMONA         SUNNY     83  62  49 W12       29.91S
GILLESPIE FLD  FAIR      82  63  51 W15       29.90R
LA MESA          N/A     80  67  64 W12       29.82S
JAMUL            N/A     84  67  55 SW1       29.86S
DESCANSO N       N/A     81  49  33 W1        29.77F
MT. LAGUNA OBS   N/A     65  50  59 W2        29.73S
CAMPO            N/A     78  58  49 E6        29.93F

$$

ORANGE COUNTY AND THE LOS ANGELES BASIN

CITY           SKY/WX    TMP DP  RH WIND       PRES   REMARKS
JOHN WAYNE AP  MOSUNNY   80  61  52 SW9       29.89F
LAGUNA BEACH     N/A     76  66  69 SW6       29.86F
LAKE FOREST FR   N/A     84  61  45 W5        29.78F
SANTA ANA        N/A     84  68  58 SW9       29.84F
HUNTINGTON BCH   N/A     75  66  75 W12       29.91F
LOS ALAMITOS   MOSUNNY   81  64  56 SW12      29.88F
FULLERTON      SUNNY     87  61  41 VRB7      29.86F
LONG BEACH     SUNNY     81  62  52 W10G16    29.88F
L.A. AP        MOSUNNY   74  61  63 W14       29.91F
L.A. DOWNTOWN  SUNNY     77  62  59 VRB3      29.89F

$$

THE INLAND EMPIRE

CITY           SKY/WX    TMP DP  RH WIND       PRES   REMARKS
CHINO          MOSUNNY   90  61  37 W10       29.87F
ONTARIO        MOSUNNY   91  58  32 W14       29.87F
RIVERSIDE AP   SUNNY     90  61  37 W9G20     29.86F
RIV CYN CREST    N/A     91  68  47 NW3       29.85F
MORENO VALLEY    N/A     91  63  39 NW5       29.06F
MARCH ARB      SUNNY     89  59  35 VRB2      29.90F
HORSETHIEF CYN   N/A     89  56  32 N7        29.88F
PERRIS           N/A     88  58  35 CALM      29.87F
MENIFEE          N/A     91  58  32 SW3       29.94F
HEMET EAST       N/A     89  53  28 S3        29.87F
FRENCH VALLEY  FAIR      88  55  33 SW9       29.89F
TEMECULA         N/A     89  62  40 SW9       29.84F

$$

SAN BERNARDINO AND RIVERSIDE COUNTY MOUNTAINS

CITY           SKY/WX    TMP DP  RH WIND       PRES   REMARKS
BIG BEAR AP    MOSUNNY   64  41  42 W7        30.22F
BIG BEAR SHEA    N/A     67  38  34 NW6       29.98F
ANGELUS OAKS     N/A     69  53  56 W1        29.84F
PINE COVE        N/A     68  50  52 SW3       29.81F

$$

SOUTHERN DESERT INCLUDING THE COACHELLA VALLEY

CITY           SKY/WX    TMP DP  RH WIND       PRES   REMARKS
PALM SPRINGS   MOSUNNY   99  45  15 E9        29.82F HX  95
THOUSAND PALMS   N/A     95  49  20 SE3       29.79F
PALM DESERT      N/A     98  56  24 CALM      27.69S HX  96
THERMAL        MOSUNNY  100  47  16 N7G17     29.76S HX  96
BLYTHE         TSTM      73  67  81 SW33G41   29.95R
IMPERIAL AP    TSTM      75  63  66 E15       29.86S
EL CENTRO NAS  TSTM      74  64  71 E17       29.85S
YUMA AZ        TSTM      74  66  76 NW20G33   29.85R
MEXICALI       TSTM      75  63  64 N13       29.87

$$

UPPER DESERT

CITY           SKY/WX    TMP DP  RH WIND       PRES   REMARKS
VICTORVILLE AP SUNNY     90  46  22 S12G21    29.96F
HESPERIA         N/A     87  53  30 W3        29.96F
APPLE VALLEY     N/A     87  50  27 S5        30.01F
GRAY BUTTE AP  LGT RAIN  86  48  26 SE10G18   29.94F
PALMDALE       PTSUNNY   90  51  26 NW15G28   29.93F
LANCASTER      SUNNY     91  49  23 W18G24    29.92F
EDWARDS AFB    MOSUNNY   92  46  20 VRB7G18   29.90F
DAGGETT        MOSUNNY   91  46  21 SE26G33   29.88F
29 PALMS N     PTSUNNY   89  52  28 E15       29.98R
NEEDLES        MOSUNNY   95  50  21 NE10      29.88F

$$

REGIONAL REPORTS

CITY           SKY/WX    TMP DP  RH WIND       PRES   REMARKS
SANTA BARBARA  SUNNY     74  58  57 W12       29.91F
SANDBERG       SUNNY     84  44  24 SE15G23   30.09F
MT. WILSON       N/A     77  55  47 SW7         N/A
LAS VEGAS NV   CLOUDY    83  51  33 SW17      29.96R
PHOENIX AZ     PTSUNNY   87  59  38 E3        29.88F
TIJUANA        MOSUNNY   77  61  57 W13       29.92F
ENSENADA NW      N/A     75  32  20 W10       29.88S

$$

OFFSHORE ISLANDS

CITY           SKY/WX    TMP DP  RH WIND       PRES   REMARKS
CATALINA ARPT  SUNNY     67  58  72 W16       29.95F
SAN CLEMENTE I MOSUNNY   72  60  66 W13       29.93F
SAN NICOLAS IS MOSUNNY   69  59  70 W14       29.93F

$$

MARINE AND OFFSHORE BUOY REPORTS

STATION/POSITION SKY/WX   TEMP    WIND        PRES    SWELL
                          AIR SEA DIR/SP/G            HT/PER/DIR
                          (F)     (DEG/KT/KT) (MB)    (FT/S/D)
TANNER BANKS               66 69  290/  8/ 10 1013.8F   7/190/11
S CLEMENTE BASIN           69 71  300/ 10/ 12 1012.6F   5/200/12
SAN NICOLAS IS.               66                N/A     3/170/11
SO. S. ROSA ISLA           65 69  300/ 12/ 16 1013.3F   5/11
W. S. BARBARA CH           63 65  300/ 14/ 16 1013.2F   3/240/10
M. S. BARBARA CH           64 65  270/ 12/ 14 1014.0F
S. MONICA BASIN            68 72  260/ 10/ 12 1012.8F   3/180/10
S PEDRO CHANNEL               69                N/A     3/160/11
DANA POINT                    72                N/A     3/180/12
CMP PENDLETON NS              73                N/A     3/210/12
OCEANSIDE OFFSHR              73                N/A     5/190/12
TORREY PINES OTR              74                N/A     2/180/12
LA JOLLA 1                 71 70  320/  9/ 11 1012.6F
MISSION BAY BUOY              71                N/A     3/190/11
SAN DIEGO BAY                 74              1012.9S
POINT LOMA SOUTH              74                N/A     3/180/11

$$




USA.gov is the U.S. government's official web portal to all federal, state and local government web resources and services.